Lapse_Rate
5.3 5.3 5.2 5.6 5.7 6.1 6.4 6.3 6.7 7.8 9.1 8.4 7.7 7.3 7.3 7.1 7.0 6.4 6.2 5.0 5.4 5.1 5.5 5.2 5.0 5.0 5.0 5.2 5.1 5.3 5.7 5.3 5.3 5.4 5.4 5.6 5.9 5.5 5.5 5.8 5.4 6.1 5.7 5.4
5.4 5.1 5.6 5.9 6.0 6.3 6.6 6.7 6.7 7.3 8.8 9.7 9.1 8.0 7.1 7.6 7.4 6.3 5.8 5.5 6.0 5.1 5.3 5.0 5.1 5.0 5.0 5.5 5.7 5.6 5.9 5.6 5.4 5.5 5.5 5.7 5.8 5.4 5.7 5.7 5.9 6.1 6.0 5.7
5.5 6.0 6.6 6.2 6.4 6.6 6.8 6.9 7.1 7.2 8.6 9.0 9.1 8.1 7.4 7.1 6.9 6.5 5.1 5.2 5.7 6.2 5.3 5.3 5.2 5.2 5.0 5.6 5.9 6.0 6.0 5.7 5.6 5.4 5.4 5.6 5.7 5.4 5.6 5.4 5.5 5.9 5.6 5.4
5.9 6.0 6.3 6.4 6.5 6.9 7.1 7.3 7.7 7.6 7.7 8.2 8.6 7.9 7.9 7.3 7.2 7.3 7.2 6.6 5.3 5.6 5.6 5.2 5.1 5.2 5.5 6.0 6.0 6.0 6.0 5.8 5.7 5.6 5.6 5.7 6.0 6.1 5.8 5.5 5.6 5.5 5.3 5.4
6.3 6.5 6.4 6.5 6.8 7.1 7.1 7.6 7.6 8.0 7.9 7.5 8.1 8.8 9.2 7.9 8.0 7.7 7.2 6.6 5.9 5.3 5.9 5.6 5.8 5.6 6.1 6.4 6.4 6.1 6.2 5.8 5.8 5.7 5.6 5.7 5.8 6.0 5.8 5.4 5.3 5.3 5.3 5.4
6.3 6.7 6.9 6.9 7.0 7.2 7.4 7.6 7.5 7.5 7.9 7.0 7.5 8.1 8.4 8.5 8.9 8.0 7.6 6.7 7.1 6.4 5.0 6.8 5.4 5.3 5.8 6.4 6.5 6.2 6.2 5.9 5.8 5.9 5.8 5.5 5.6 5.7 5.8 5.6 5.7 5.7 5.6 5.4
6.9 7.1 7.0 7.0 7.0 7.3 7.2 7.4 7.3 6.5 6.5 5.6 7.5 8.0 7.6 7.7 8.1 8.2 8.2 8.4 7.5 6.8 5.7 6.0 5.6 5.5 5.2 6.3 6.8 6.7 6.6 6.2 5.7 5.8 5.9 5.6 5.5 5.6 5.7 5.8 6.0 5.7 5.6 5.7
7.1 7.3 7.8 7.5 7.1 6.8 7.1 7.4 7.2 5.6 5.5 6.3 7.7 7.8 7.4 8.2 8.8 8.6 8.3 8.1 7.4 7.0 6.5 6.5 6.2 6.8 5.9 6.9 7.0 6.7 6.8 6.7 6.1 5.8 5.9 5.8 5.4 5.5 5.7 5.7 5.8 5.9 5.6 5.6
7.2 7.1 7.7 7.7 7.9 8.0 7.7 7.2 7.4 7.5 7.2 7.7 8.2 8.1 8.4 8.6 8.7 8.9 8.1 7.5 7.2 6.6 6.2 6.6 5.7 7.5 6.8 6.9 7.5 7.3 6.7 6.8 6.6 6.1 6.0 5.9 5.6 5.6 5.7 5.8 5.8 5.7 5.8 5.8
6.7 6.8 7.9 8.4 8.5 8.0 8.4 7.9 8.2 8.0 6.1 6.1 7.0 7.2 8.0 9.4 9.4 8.9 8.4 7.8 8.0 7.6 7.2 7.1 7.1 6.2 7.1 7.1 7.4 7.1 6.8 6.4 6.6 6.4 6.2 6.2 6.0 5.7 5.8 5.7 5.8 5.8 5.8 5.9
6.8 6.6 8.5 8.0 8.1 8.9 8.1 7.9 7.8 7.5 6.9 6.1 6.5 6.5 7.7 8.8 9.1 9.2 9.3 8.7 8.6 8.5 8.3 7.3 6.9 6.9 6.7 6.7 6.8 7.6 7.4 6.7 6.1 6.4 6.2 6.2 6.2 5.8 5.7 5.9 5.8 5.8 5.7 6.0
6.5 6.1 6.8 7.1 7.9 7.5 8.0 8.2 8.2 7.9 7.3 7.1 7.1 6.3 8.2 8.4 8.9 8.7 9.1 9.0 9.0 8.7 8.2 7.4 6.5 6.7 6.5 6.0 6.3 6.9 7.5 7.5 6.8 6.3 6.4 6.2 6.2 6.1 5.9 6.0 6.0 5.8 5.8 5.9
6.5 6.7 6.6 7.5 8.5 8.7 7.8 8.5 8.6 8.1 7.6 7.0 7.4 6.3 7.7 8.3 8.9 8.2 7.6 7.8 8.2 8.2 8.2 7.9 6.9 6.4 7.8 7.4 7.0 6.7 6.9 7.6 7.3 6.6 6.4 6.4 6.2 6.3 6.2 6.1 6.1 6.0 6.0 5.8
6.1 6.5 6.7 6.3 6.7 6.9 7.0 7.3 7.7 8.5 8.3 7.5 7.8 7.0 7.6 7.8 8.6 8.7 7.4 6.8 7.3 7.6 7.9 8.6 8.4 6.4 6.8 6.9 7.4 7.2 7.0 6.8 7.4 7.3 6.9 6.9 6.8 6.6 6.5 6.3 6.2 6.1 6.1 6.1
6.7 6.2 6.6 6.5 6.6 6.6 6.6 7.0 7.3 6.8 6.8 6.6 6.9 7.1 7.4 7.6 8.2 8.6 8.1 7.6 7.1 7.0 6.6 7.2 6.8 6.1 7.6 8.1 7.7 7.4 6.9 6.6 7.3 7.5 7.4 7.3 7.0 6.8 6.5 6.4 6.2 6.2 6.2 6.3
7.0 6.9 6.9 6.3 6.6 6.8 6.7 6.5 6.9 7.0 6.6 6.5 6.7 6.9 7.3 7.1 7.5 8.0 8.3 8.4 8.0 8.0 7.2 6.5 6.2 6.9 5.8 7.0 7.7 6.9 7.3 6.2 7.5 7.9 7.5 7.4 7.1 6.8 6.8 6.7 6.7 6.5 6.5 6.4
6.8 7.4 7.8 6.5 7.2 6.8 6.6 6.6 6.8 6.9 6.7 7.0 7.0 7.1 7.2 6.4 6.3 7.3 7.9 8.2 8.4 8.1 7.8 7.5 7.0 6.9 6.4 6.3 7.2 7.6 7.8 6.7 7.9 7.9 7.8 7.4 7.2 6.9 6.8 6.8 6.8 6.7 6.7 6.7
6.9 7.3 7.1 6.8 7.4 6.8 6.5 7.2 7.3 7.2 6.8 6.7 6.8 7.4 7.0 5.7 5.7 6.7 7.1 7.4 7.5 8.1 8.0 7.3 6.6 6.2 5.9 5.5 6.2 7.1 6.6 5.9 7.7 8.2 8.1 7.6 7.2 6.9 6.6 6.7 6.8 7.0 6.8 6.6
6.9 7.3 7.4 7.0 7.4 7.3 7.4 7.2 7.4 7.0 7.0 7.3 7.0 7.0 7.2 5.9 5.7 5.9 6.6 7.4 7.5 7.3 7.8 7.0 6.4 6.1 5.8 5.8 5.4 6.1 5.7 6.2 6.5 7.2 7.9 8.1 7.7 7.2 7.0 6.8 6.9 6.8 6.9 6.8
7.1 6.9 6.9 6.6 7.1 7.0 7.7 7.9 8.1 7.8 6.5 7.2 7.2 6.8 6.3 6.4 6.0 6.2 6.4 7.0 7.4 6.9 7.0 7.0 6.5 6.2 6.5 5.9 6.3 6.0 5.3 5.9 6.8 7.5 7.4 7.9 8.3 7.7 7.4 7.3 6.9 6.7 6.7 6.8
6.5 7.0 7.0 7.2 7.0 7.0 7.2 7.5 7.8 7.4 5.9 6.5 6.5 6.2 5.5 5.5 6.1 6.1 6.0 7.1 7.2 7.1 7.1 7.3 7.3 6.5 6.3 6.0 6.7 6.5 5.7 6.7 7.0 7.0 7.1 7.4 8.1 8.5 8.1 7.6 7.2 7.0 6.9 6.6
5.8 5.8 6.1 6.3 6.7 6.8 6.9 7.4 7.1 7.1 7.4 6.1 6.5 6.4 5.9 5.6 5.9 6.1 5.6 5.9 6.5 6.5 6.4 7.3 7.1 6.8 6.0 6.1 6.2 5.7 5.2 5.5 6.8 7.7 7.3 7.0 7.5 8.5 8.5 8.2 7.7 7.2 6.9 6.8
5.6 5.5 5.5 5.7 6.4 6.3 6.0 5.9 6.4 6.4 6.5 7.0 6.4 6.4 5.6 5.6 5.8 6.1 6.3 5.8 6.3 6.5 6.0 7.5 7.2 6.7 6.5 6.4 6.4 6.6 7.1 7.5 6.5 6.9 7.6 7.7 7.4 7.9 8.4 8.6 8.5 7.7 7.3 7.1
5.8 5.7 5.5 5.5 5.9 5.5 5.7 5.7 5.6 6.1 6.1 6.4 6.9 6.4 5.7 5.3 5.0 5.0 5.9 5.8 5.3 6.7 6.2 6.3 6.1 7.5 6.7 6.6 6.6 6.5 6.9 7.3 7.0 7.2 7.4 7.6 7.7 7.9 7.9 8.6 8.6 8.4 7.9 7.5
5.7 5.8 5.5 5.7 5.5 5.9 5.8 5.5 5.5 5.7 5.5 5.4 5.5 6.2 6.2 5.7 5.3 4.9 5.4 5.7 5.2 5.8 5.9 6.3 6.3 7.1 7.2 7.6 7.3 6.9 6.4 7.0 7.2 7.0 7.5 7.7 7.9 7.9 7.8 8.3 8.5 8.5 8.3 7.9
5.5 5.5 5.4 5.3 5.3 5.0 5.3 5.6 5.6 5.7 5.5 5.7 5.7 5.9 6.0 5.7 6.1 5.5 5.1 4.8 5.1 5.0 5.8 6.0 6.6 7.1 7.1 7.3 7.5 7.2 6.9 7.0 7.1 7.1 6.9 7.6 7.9 8.0 8.2 8.2 8.3 8.5 8.6 8.2
Wind_Speed
8 4 9 10 10 12 16 15 13 11 16 17 18 20 21 22 23 18 14 17 23 20 19 15 16 17 19 18 14 12 14 11 7 3 3 2 4 3 2 6 15 14 13 12
6 13 11 10 15 16 19 16 16 15 13 8 20 18 16 22 22 20 12 24 26 20 18 15 15 17 20 18 15 11 14 13 8 4 3 3 4 3 4 7 7 11 17 14
11 11 19 16 16 17 16 11 12 11 16 8 12 5 6 12 15 17 5 5 12 24 19 14 15 20 18 19 17 13 16 13 11 8 3 1 2 3 3 2 3 6 17 16
10 16 17 17 17 13 10 10 12 13 8 2 5 3 7 7 6 12 12 4 10 16 22 15 15 18 20 19 17 15 16 14 10 12 6 5 4 4 4 5 4 5 14 14
10 14 16 18 15 17 13 10 10 10 7 7 13 1 7 15 7 9 11 12 22 15 25 23 21 19 20 19 18 16 16 16 14 10 10 6 4 4 4 6 10 6 6 13
11 14 11 14 16 11 12 10 11 6 4 7 11 4 1 13 18 16 22 25 28 18 24 26 22 17 17 19 18 17 17 17 14 13 8 9 9 6 5 5 5 7 4 4
9 12 10 11 9 11 7 2 2 3 5 8 7 5 8 16 19 24 29 23 20 18 17 24 23 19 17 21 20 19 20 18 18 14 11 8 9 8 7 7 8 9 5 3
5 7 11 7 6 4 7 9 5 8 6 7 8 6 7 11 25 26 26 21 24 18 6 20 25 21 19 22 22 21 21 20 19 18 15 9 8 7 5 5 5 9 8 8
6 6 16 12 14 8 6 5 9 5 12 4 6 8 10 12 11 26 21 17 10 9 7 8 11 23 21 19 22 23 21 20 20 19 16 14 8 10 7 8 5 5 7 6
7 6 7 13 5 7 8 4 5 4 6 6 6 9 5 6 18 24 22 22 17 18 11 4 6 10 17 18 19 19 20 20 19 19 17 15 15 10 8 7 7 7 7 6
5 2 11 9 4 3 1 2 1 0 1 4 6 8 8 3 18 23 29 26 22 18 20 15 12 7 11 19 18 20 19 20 19 19 17 17 15 12 8 9 8 7 6 7
8 2 6 10 18 15 11 3 0 3 7 3 3 8 11 12 18 5 12 22 25 24 17 17 17 13 16 14 21 21 20 22 21 19 18 17 16 15 14 9 10 10 8 6
7 4 5 10 6 5 6 6 6 4 4 10 5 8 4 16 17 14 13 16 15 18 22 22 24 26 20 18 14 21 21 21 21 19 19 17 17 17 16 17 8 9 10 9
6 3 3 6 7 9 12 19 17 5 2 5 6 8 9 11 12 15 14 19 16 10 9 12 16 17 21 14 3 20 21 20 21 20 20 20 20 18 19 16 16 8 13 9
4 4 7 12 13 14 16 18 19 13 9 4 11 14 4 10 11 14 13 14 13 12 6 5 9 15 9 12 7 8 20 22 21 22 21 21 19 18 16 17 16 17 11 15
3 4 7 13 12 17 17 17 20 19 16 15 13 16 6 11 12 14 15 15 12 10 5 5 15 24 14 16 10 6 11 21 21 21 22 20 18 19 18 17 16 16 16 13
1 3 5 7 8 13 12 12 16 18 18 11 12 10 10 9 12 10 11 14 17 15 11 10 13 13 14 3 10 13 15 19 21 21 21 20 20 19 19 17 16 15 17 15
7 5 5 4 5 3 9 8 14 18 17 18 19 13 9 6 10 12 7 9 17 22 22 10 9 3 6 4 6 8 7 7 19 21 20 21 20 21 18 18 18 16 15 17
6 4 4 3 4 9 14 12 10 7 10 10 8 12 19 15 11 8 13 19 18 19 20 11 6 9 2 4 9 6 11 12 7 15 20 20 21 20 18 20 19 18 15 15
10 4 2 2 4 6 6 6 13 4 9 9 12 12 16 16 7 5 20 20 20 19 17 13 9 10 11 5 5 14 17 15 15 17 17 18 20 20 21 20 20 15 16 16
5 4 3 7 6 6 12 19 10 3 5 19 17 9 14 9 4 12 15 21 20 19 20 15 11 9 11 8 4 9 7 18 21 19 18 16 19 20 19 18 16 17 15 15
4 5 3 5 3 5 20 13 6 10 19 14 19 17 17 17 20 16 12 18 21 23 21 8 8 10 12 12 8 5 19 24 9 9 9 17 18 16 14 18 15 16 15 15
1 2 3 3 5 13 8 9 13 11 16 18 17 18 18 18 23 21 17 15 22 25 5 6 8 10 9 8 12 15 14 5 6 7 15 12 15 17 15 17 17 12 15 14
2 2 2 5 3 10 14 12 10 14 16 20 21 19 16 17 18 19 16 15 14 7 5 4 5 7 7 9 11 12 12 11 8 7 9 14 13 15 15 13 14 14 14 14
2 5 3 5 10 13 8 13 13 15 15 18 22 22 20 16 19 16 15 18 5 3 4 4 4 4 6 7 9 11 13 11 9 9 7 12 13 13 14 14 13 14 16 15
3 4 2 3 8 9 11 13 17 15 17 19 22 10 12 10 11 14 14 10 5 2 1 2 5 6 7 7 9 10 12 13 11 9 7 10 12 11 12 12 4 12 7 0
Wind_Direction
220 246 222 224 234 255 263 278 281 258 245 188 181 151 165 176 166 179 223 203 181 196 208 200 165 147 146 151 154 143 149 152 141 147 146 136 152 163 110 161 158 172 164 158
238 227 240 226 236 235 250 263 277 287 281 190 138 155 167 172 175 174 226 212 175 187 204 187 165 151 152 157 160 145 148 154 150 155 167 158 168 172 165 163 178 178 155 165
221 234 222 237 246 241 245 239 268 270 304 17 86 71 169 188 181 159 28 41 203 178 194 193 174 163 158 158 164 155 155 161 157 170 172 183 154 72 95 167 153 210 160 169
231 237 251 223 238 251 253 257 264 270 306 158 239 214 214 161 126 148 110 4 280 222 189 187 187 168 169 168 163 156 158 165 163 174 183 182 180 161 175 168 190 190 172 160
251 220 242 248 237 226 253 271 272 287 264 308 286 294 223 153 150 184 111 282 260 265 194 192 192 184 173 168 169 162 161 170 175 174 186 181 183 195 147 172 176 175 187 160
273 286 243 244 257 250 222 258 284 312 334 272 263 148 261 167 187 171 175 197 222 227 204 190 189 182 168 172 172 170 163 176 177 182 180 183 188 201 164 171 170 171 181 167
292 277 288 281 258 259 244 273 293 320 275 255 274 268 220 198 177 179 193 204 199 214 210 186 185 184 172 177 178 179 174 176 182 187 191 191 193 193 190 165 167 165 174 171
263 280 241 261 257 243 232 194 171 216 227 259 246 256 262 235 182 191 199 194 187 198 192 186 183 187 182 180 181 184 185 181 182 185 194 194 202 202 196 180 172 176 183 192
11 287 340 304 234 183 274 254 217 255 280 311 265 275 280 251 174 187 183 174 167 150 93 42 202 189 190 180 187 186 186 189 186 188 190 192 194 205 188 205 192 189 174 186
4 322 305 333 335 204 191 264 17 251 246 258 277 293 255 257 234 179 178 184 164 143 142 77 33 287 203 192 188 189 187 191 190 191 196 195 196 197 190 189 202 200 198 167
38 94 291 341 322 241 347 332 69 169 244 242 249 272 255 152 31 193 185 184 168 161 153 151 231 270 300 208 189 192 184 188 194 196 194 199 200 201 189 191 202 201 206 152
17 316 306 286 306 317 299 267 100 155 280 240 213 276 342 23 29 333 194 191 175 167 156 160 188 227 247 238 200 192 190 188 191 194 198 197 198 201 204 199 196 197 207 176
343 337 332 326 327 355 347 307 263 251 257 265 231 274 93 35 33 45 34 16 178 167 156 163 184 198 221 214 221 200 192 191 190 191 196 199 199 198 203 206 199 192 196 208
19 295 250 269 329 325 321 322 325 331 236 282 262 281 293 22 16 20 50 58 54 133 209 223 202 202 229 193 217 209 199 188 190 192 194 200 202 200 203 202 204 191 198 189
338 273 295 293 303 305 300 302 304 308 296 294 288 286 60 39 17 9 24 42 68 80 145 254 279 271 257 212 176 248 202 197 187 193 197 201 200 203 200 204 200 207 202 205
348 302 272 284 295 291 288 292 294 296 290 290 297 282 24 5 359 8 352 2 27 25 101 234 265 263 203 206 219 210 259 204 194 192 199 199 198 200 201 199 198 200 206 202
275 16 359 283 325 319 296 259 270 276 285 290 289 296 330 355 348 351 354 5 354 345 328 339 341 220 196 233 323 217 222 214 196 198 197 198 199 200 200 198 199 197 203 207
247 192 180 279 352 257 258 300 291 289 293 297 315 304 337 11 331 330 354 357 358 354 334 33 13 64 216 220 37 10 341 315 205 196 195 196 196 199 196 195 199 201 200 204
314 256 196 192 208 284 298 280 292 346 305 319 314 354 328 17 345 338 18 1 345 338 329 316 0 339 121 191 97 17 312 310 300 236 195 194 194 195 193 198 197 198 197 202
353 351 180 241 223 228 283 265 287 13 273 338 26 7 331 352 334 320 344 340 330 324 314 300 347 332 333 134 184 151 187 245 258 254 211 193 194 193 196 197 199 195 202 206
323 346 276 234 244 272 11 341 327 219 314 333 344 350 321 318 289 320 329 320 318 311 317 306 341 327 320 340 220 180 218 249 259 231 220 193 193 195 195 192 194 197 198 201
332 340 331 338 256 248 8 354 3 332 316 325 317 317 310 307 308 315 322 313 306 302 303 319 331 325 318 325 327 210 205 215 229 200 204 204 194 193 189 187 190 196 197 201
78 21 314 271 282 319 354 321 318 321 311 313 306 297 296 304 303 308 315 309 302 288 255 334 329 312 300 349 333 320 325 311 225 199 202 202 192 192 187 187 190 191 195 201
232 110 245 311 258 310 321 313 333 316 311 308 298 294 292 286 284 291 301 297 283 317 345 326 279 311 340 348 325 311 324 338 333 238 201 203 194 187 193 187 190 191 196 200
249 319 272 255 286 310 280 319 314 313 309 298 306 270 279 276 279 274 280 283 228 290 317 327 328 335 348 335 321 325 328 331 323 294 222 202 202 187 191 191 190 198 203 200
198 217 216 265 305 305 299 312 321 319 317 317 325 287 275 289 297 295 268 239 198 171 95 345 352 1 347 341 334 329 325 327 316 308 250 209 202 191 190 186 138 40 27 276